FW9368 Weather Reports


time (UTC)temp
C
wind
direction
speed
KPH
gust
KPH
rain 1hr
cm
rain 24hr
cm
rain mn
cm
humidity
%
barometer
mb
20260506193045 13 360 3.2 14.5 0.03 0.20 0.20 93 1008.1
20260506192526 14 360 4.8 14.5 0.05 0.20 0.20 93 1008.0
20260506192024 14 360 4.8 19.3 0.05 0.20 0.20 93 1007.8
20260506191542 14 280 1.6 19.3 0.08 0.20 0.20 93 1008.0
20260506191024 13 360 4.8 22.5 0.08 0.20 0.20 93 1008.2
20260506190523 13 360 8.0 22.5 0.08 0.20 0.20 93 1008.2
20260506190038 13 360 6.4 17.7 0.08 0.18 0.18 93 1008.4
20260506185523 14 360 6.4 17.7 0.08 0.18 0.18 93 1008.4
20260506185024 14 192 3.2 17.7 0.08 0.18 0.18 93 1008.4
20260506184547 13 204 4.8 19.3 0.10 0.18 0.18 93 1008.5
20260506184023 13 243 4.8 19.3 0.10 0.18 0.18 92 1008.7
20260506183523 13 173 3.2 20.9 0.13 0.18 0.18 92 1008.7
20260506183039 13 192 4.8 22.5 0.13 0.18 0.18 91 1008.6
20260506182523 13 163 3.2 22.5 0.13 0.15 0.15 91 1008.8
20260506182025 13 229 4.8 14.5 0.13 0.15 0.15 91 1008.8
20260506181540 13 218 4.8 17.7 0.13 0.13 0.13 90 1008.9
20260506181023 13 214 3.2 17.7 0.13 0.13 0.13 90 1008.9
20260506180525 14 170 6.4 22.5 0.10 0.10 0.10 90 1008.9
20260506180038 14 196 6.4 24.1 0.10 0.10 0.10 90 1008.8
20260506175526 14 201 9.7 24.1 0.10 0.10 0.10 90 1008.9
20260506175023 14 139 6.4 22.5 0.10 0.10 0.10 89 1009.0
20260506174537 14 101 6.4 22.5 0.08 0.08 0.08 89 1009.3
20260506174026 14 225 1.6 17.7 0.08 0.08 0.08 88 1009.3
20260506173525 15 360 3.2 17.7 0.05 0.05 0.05 88 1009.4
20260506173043 15 360 3.2 14.5 0.05 0.05 0.05 87 1009.5
20260506172520 15 360 1.6 9.7 0.03 0.03 0.03 86 1009.7
20260506172027 15 360 1.6 9.7 0.00 0.00 0.00 86 1009.6
20260506171544 15 360 4.8 9.7 0.00 0.00 0.00 85 1009.6
20260506171024 15 360 3.2 9.7 0.00 0.00 0.00 84 1009.6
20260506170523 15 0 3.2 17.7 0.00 0.00 0.00 84 1009.9
20260506170039 16 360 3.2 17.7 0.00 0.00 0.00 83 1010.0
20260506165526 16 360 4.8 12.9 0.00 0.00 0.00 82 1010.0
20260506165027 16 360 4.8 12.9 0.00 0.00 0.00 80 1010.0
20260506164538 16 360 3.2 16.1 0.00 0.00 0.00 80 1010.0
20260506164024 16 360 4.8 16.1 0.00 0.00 0.00 80 1010.1
20260506163527 16 360 4.8 14.5 0.00 0.00 0.00 80 1010.1
20260506163052 16 360 4.8 14.5 0.00 0.00 0.00 80 1010.1
20260506162527 16 360 3.2 12.9 0.00 0.00 0.00 80 1010.1
20260506162023 16 360 4.8 17.7 0.00 0.00 0.00 80 1010.0
20260506161541 16 360 3.2 17.7 0.00 0.00 0.00 80 1010.1
20260506161023 16 360 4.8 17.7 0.00 0.00 0.00 80 1010.2
20260506160527 16 360 6.4 17.7 0.00 0.00 0.00 79 1010.2
20260506160043 16 360 6.4 24.1 0.00 0.00 0.00 79 1010.4
20260506155523 16 360 3.2 24.1 0.00 0.00 0.00 80 1010.4
20260506155024 16 360 8.0 20.9 0.00 0.00 0.00 80 1010.5
20260506154547 16 360 6.4 17.7 0.00 0.00 0.00 80 1010.6
20260506154026 16 360 3.2 17.7 0.00 0.00 0.00 80 1010.5
20260506153524 16 360 3.2 17.7 0.00 0.00 0.00 80 1010.7
20260506153040 16 360 6.4 20.9 0.00 0.00 0.00 79 1010.7
20260506152528 16 360 3.2 20.9 0.00 0.00 0.00 79 1010.4
20260506152025 16 360 9.7 20.9 0.00 0.00 0.00 79 1010.4
20260506151538 16 360 8.0 19.3 0.00 0.00 0.00 79 1010.2
20260506151024 16 360 6.4 19.3 0.00 0.00 0.00 79 1010.4
20260506150524 16 360 6.4 24.1 0.00 0.00 0.00 79 1010.4
20260506150035 16 360 6.4 24.1 0.00 0.00 0.00 78 1010.5
20260506145524 16 360 9.7 24.1 0.00 0.00 0.00 78 1010.5
20260506145025 17 360 6.4 25.7 0.00 0.00 0.00 77 1010.4
20260506144539 17 360 4.8 27.4 0.00 0.00 0.00 77 1010.6
20260506144024 17 360 9.7 29.0 0.00 0.00 0.00 77 1010.7
20260506143524 17 96 9.7 29.0 0.00 0.00 0.00 77 1010.8
20260506143038 17 188 8.0 32.2 0.00 0.00 0.00 77 1010.8
20260506142523 17 171 9.7 32.2 0.00 0.00 0.00 77 1010.7
20260506142023 17 273 6.4 30.6 0.00 0.00 0.00 77 1010.8
20260506141536 17 158 14.5 27.4 0.00 0.00 0.00 77 1010.6
20260506141024 17 225 16.1 25.7 0.00 0.00 0.00 77 1010.7
20260506140526 17 233 6.4 24.1 0.00 0.00 0.00 78 1010.8
20260506140047 17 176 8.0 20.9 0.00 0.00 0.00 78 1010.9
20260506135524 17 224 8.0 19.3 0.00 0.00 0.00 78 1010.9
20260506135027 17 156 6.4 19.3 0.00 0.00 0.00 79 1010.8
20260506134535 16 360 6.4 19.3 0.00 0.00 0.00 80 1010.6
20260506134026 16 360 6.4 19.3 0.00 0.00 0.00 80 1010.8
20260506133525 16 360 6.4 19.3 0.00 0.00 0.00 80 1010.6
20260506133039 16 360 6.4 14.5 0.00 0.00 0.00 80 1010.6
20260506132523 16 360 6.4 16.1 0.00 0.00 0.00 80 1010.6
20260506132024 16 360 3.2 16.1 0.00 0.00 0.00 80 1010.4
20260506131538 16 360 8.0 17.7 0.00 0.00 0.00 79 1010.5
20260506131026 16 360 6.4 17.7 0.00 0.00 0.00 79 1010.5
20260506130527 16 360 3.2 17.7 0.00 0.00 0.00 80 1010.5
20260506130038 16 360 6.4 22.5 0.00 0.00 0.00 80 1010.6
20260506125524 16 360 9.7 22.5 0.00 0.00 0.00 80 1010.7
20260506125024 16 360 3.2 16.1 0.00 0.00 0.00 81 1010.8
20260506124539 16 360 8.0 22.5 0.00 0.00 0.00 81 1010.9
20260506124024 16 360 8.0 22.5 0.00 0.00 0.00 82 1010.9
20260506123524 16 360 4.8 17.7 0.00 0.00 0.00 83 1011.1
20260506123037 16 360 4.8 17.7 0.00 0.00 0.00 84 1011.1
20260506122524 15 360 6.4 20.9 0.00 0.00 0.00 85 1011.1
20260506122026 15 360 6.4 20.9 0.00 0.00 0.00 85 1011.1
20260506121541 15 360 4.8 14.5 0.00 0.00 0.00 86 1011.1
20260506121025 15 360 6.4 20.9 0.00 0.00 0.00 86 1010.8
20260506120525 15 360 9.7 20.9 0.00 0.00 0.00 87 1010.9
20260506120040 15 360 4.8 17.7 0.00 0.00 0.00 87 1011.0
20260506115521 15 360 4.8 17.7 0.00 0.00 0.00 88 1010.9
20260506115022 14 360 4.8 12.9 0.00 0.00 0.00 89 1010.8
20260506114540 14 360 4.8 17.7 0.00 0.00 0.00 89 1010.8
20260506114021 14 360 3.2 19.3 0.00 0.00 0.00 89 1010.8
20260506113522 14 360 6.4 19.3 0.00 0.00 0.00 90 1010.8
20260506113038 13 360 3.2 9.7 0.00 0.00 0.00 90 1010.9
20260506112522 13 360 3.2 9.7 0.00 0.00 0.00 91 1011.0
20260506112023 13 360 3.2 9.7 0.00 0.00 0.00 91 1010.9
20260506111541 13 360 3.2 12.9 0.00 0.00 0.00 91 1010.9
20260506111023 13 360 4.8 12.9 0.00 0.00 0.00 92 1011.0
20260506110522 13 360 1.6 8.0 0.00 0.00 0.00 91 1010.9
20260506110035 13 360 1.6 9.7 0.00 0.00 0.00 92 1010.9
20260506105522 13 0 3.2 9.7 0.00 0.00 0.00 92 1010.8
20260506105021 13 360 1.6 9.7 0.00 0.00 0.00 91 1010.9
20260506104543 12 360 1.6 9.7 0.00 0.00 0.00 91 1010.9
20260506104021 12 0 0.0 6.4 0.00 0.00 0.00 91 1011.0
20260506103521 12 360 1.6 8.0 0.00 0.00 0.00 91 1011.0
20260506103038 12 239 3.2 8.0 0.00 0.00 0.00 91 1010.9
20260506102525 12 184 1.6 6.4 0.00 0.00 0.00 91 1011.0
20260506102023 12 188 1.6 8.0 0.00 0.00 0.00 91 1010.9
20260506101538 12 211 1.6 8.0 0.00 0.00 0.00 91 1010.9
20260506101022 12 159 3.2 8.0 0.00 0.00 0.00 91 1011.0
20260506100522 12 234 1.6 9.7 0.00 0.00 0.00 90 1010.9
20260506100040 12 179 0.0 9.7 0.00 0.00 0.00 90 1010.9
20260506095524 12 156 4.8 9.7 0.00 0.00 0.00 90 1010.8
20260506095022 12 142 1.6 6.4 0.00 0.00 0.00 90 1010.9
20260506094541 12 0 1.6 4.8 0.00 0.00 0.00 90 1010.8
20260506094022 12 0 1.6 8.0 0.00 0.00 0.00 90 1010.7
20260506093525 12 144 1.6 8.0 0.00 0.00 0.00 90 1010.8
20260506093058 12 196 1.6 6.4 0.00 0.00 0.00 89 1010.8
20260506092522 12 169 1.6 11.3 0.00 0.00 0.00 89 1010.9
20260506092022 12 0 3.2 11.3 0.00 0.00 0.00 89 1010.8
20260506091540 12 150 1.6 11.3 0.00 0.00 0.00 89 1010.8
20260506091023 12 291 3.2 11.3 0.00 0.00 0.00 89 1010.8
20260506090522 12 206 1.6 9.7 0.00 0.00 0.00 89 1010.9
20260506090040 12 177 0.0 8.0 0.00 0.00 0.00 89 1011.0
20260506085524 12 167 1.6 8.0 0.00 0.00 0.00 89 1011.1
20260506085022 12 208 3.2 9.7 0.00 0.00 0.00 89 1011.1
20260506084537 13 150 1.6 9.7 0.00 0.00 0.00 89 1011.0
20260506084022 13 157 3.2 9.7 0.00 0.00 0.00 88 1011.0
20260506083522 13 360 0.0 9.7 0.00 0.00 0.00 88 1011.1
20260506083040 13 360 0.0 8.0 0.00 0.00 0.00 88 1011.2
20260506082524 13 190 1.6 8.0 0.00 0.00 0.00 88 1011.0
20260506082022 13 360 1.6 11.3 0.00 0.00 0.00 88 1011.1
20260506081536 13 0 3.2 12.9 0.00 0.00 0.00 88 1011.1
20260506081025 13 0 3.2 12.9 0.00 0.00 0.00 88 1011.1
20260506080523 13 150 3.2 11.3 0.00 0.00 0.00 88 1011.2
20260506073526 13 360 1.6 8.0 0.00 0.00 0.00 87 1011.3
20260506073039 13 360 1.6 8.0 0.00 0.00 0.00 87 1011.3
20260506072524 13 360 3.2 8.0 0.00 0.00 0.00 87 1011.3
20260506072027 13 167 1.6 8.0 0.00 0.00 0.00 87 1011.4
20260506071537 13 207 3.2 17.7 0.00 0.00 0.00 87 1011.4
20260506071022 13 360 3.2 17.7 0.00 0.00 0.00 87 1011.3
20260506070526 13 360 3.2 12.9 0.00 0.00 0.00 86 1011.2
20260506062023 13 360 1.6 9.7 0.00 0.00 0.00 85 1011.3
20260506061552 13 360 1.6 9.7 0.00 0.00 0.00 84 1011.2
20260506061025 13 360 3.2 6.4 0.00 0.00 0.00 84 1011.3
20260506060523 13 360 1.6 4.8 0.00 0.00 0.00 84 1011.3
20260506051022 14 360 3.2 12.9 0.00 0.00 0.00 82 1011.6
20260506050522 15 360 1.6 9.7 0.00 0.00 0.00 82 1011.6
20260506045022 15 360 1.6 12.9 0.00 0.00 0.00 81 1011.6
20260506044537 15 360 1.6 12.9 0.00 0.00 0.00 81 1011.8
20260506044023 15 360 3.2 9.7 0.00 0.00 0.00 81 1011.8
20260506043523 15 360 3.2 14.5 0.00 0.00 0.00 81 1011.8
20260506043035 15 360 4.8 14.5 0.00 0.00 0.00 81 1011.7
20260506042522 15 360 4.8 12.9 0.00 0.00 0.00 81 1011.7
20260506042023 15 360 4.8 12.9 0.00 0.00 0.00 81 1011.7
20260506041542 15 161 4.8 12.9 0.00 0.00 0.00 81 1011.7
20260506041022 15 360 1.6 16.1 0.00 0.00 0.00 81 1011.9
20260506040522 15 360 3.2 16.1 0.00 0.00 0.00 81 1011.8
20260506040040 15 360 4.8 16.1 0.00 0.00 0.00 81 1011.8
20260506035523 15 360 1.6 8.0 0.00 0.00 0.00 81 1012.0
20260506035023 15 360 1.6 8.0 0.00 0.00 0.00 80 1011.9
20260506034536 15 360 3.2 14.5 0.00 0.00 0.00 81 1011.8
20260506034024 15 360 3.2 14.5 0.00 0.00 0.00 80 1011.7
20260506033520 15 360 3.2 14.5 0.00 0.00 0.00 80 1011.7
20260506033036 15 360 6.4 14.5 0.00 0.00 0.00 80 1011.6
20260506032523 15 360 4.8 14.5 0.00 0.00 0.00 80 1011.6
20260506032023 15 360 6.4 16.1 0.00 0.00 0.00 79 1011.6
20260506031535 15 360 3.2 16.1 0.00 0.00 0.00 79 1011.6
20260506031023 15 360 4.8 16.1 0.00 0.00 0.00 78 1011.7
20260506030526 15 180 3.2 17.7 0.00 0.00 0.00 78 1011.8
20260506030040 15 202 6.4 17.7 0.00 0.00 0.00 77 1011.9
20260506025524 15 190 4.8 17.7 0.00 0.00 0.00 77 1011.8
20260506025022 15 203 4.8 17.7 0.00 0.00 0.00 76 1011.8
20260506024537 15 229 4.8 22.5 0.00 0.00 0.00 76 1011.7
20260506024024 15 136 9.7 22.5 0.00 0.00 0.00 75 1011.7
20260506023523 15 221 8.0 20.9 0.00 0.00 0.00 75 1011.7
20260506023049 15 246 4.8 20.9 0.00 0.00 0.00 75 1011.6
20260506022523 16 278 6.4 20.9 0.00 0.00 0.00 75 1011.7
20260506022024 16 293 6.4 17.7 0.00 0.00 0.00 75 1011.7
20260506021536 16 227 6.4 20.9 0.00 0.00 0.00 74 1011.6
20260506021024 16 360 4.8 22.5 0.00 0.00 0.00 74 1011.5
20260506020522 16 360 9.7 24.1 0.00 0.00 0.00 74 1011.4
20260506020108 16 360 9.7 25.7 0.00 0.00 0.00 74 1011.4
20260506015524 16 360 6.4 25.7 0.00 0.00 0.00 74 1011.3
20260506015025 16 360 8.0 27.4 0.00 0.00 0.00 74 1011.4
20260506014539 16 360 8.0 27.4 0.00 0.00 0.00 73 1011.3
20260506014024 16 360 4.8 17.7 0.00 0.00 0.00 74 1011.1
20260506013525 16 360 6.4 22.5 0.00 0.00 0.00 73 1011.1
20260506013037 16 360 8.0 22.5 0.00 0.00 0.00 73 1011.0
20260506012523 16 360 8.0 22.5 0.00 0.00 0.00 74 1010.9
20260506012023 16 165 8.0 22.5 0.00 0.00 0.00 74 1010.9
20260506011539 16 247 3.2 12.9 0.00 0.00 0.00 73 1010.9
20260506011023 16 218 4.8 17.7 0.00 0.00 0.00 73 1010.9
20260506010524 16 257 4.8 19.3 0.00 0.00 0.00 73 1011.0
20260506010035 16 181 4.8 20.9 0.00 0.00 0.00 73 1010.7
20260506005523 16 194 3.2 22.5 0.00 0.00 0.00 73 1010.7
20260506005023 16 223 8.0 22.5 0.00 0.00 0.00 73 1010.7
20260506004542 16 298 4.8 14.5 0.00 0.00 0.00 72 1010.7
20260506004025 16 254 3.2 14.5 0.00 0.00 0.00 72 1010.5
20260506003525 16 214 3.2 22.5 0.00 0.00 0.00 71 1010.4
20260506003038 16 296 4.8 27.4 0.00 0.00 0.00 71 1010.4
20260506002523 16 259 9.7 27.4 0.00 0.00 0.00 71 1010.2
20260506002023 16 360 8.0 24.1 0.00 0.00 0.00 71 1010.2
20260506001545 16 360 9.7 24.1 0.00 0.00 0.00 71 1010.1
20260506001023 16 162 8.0 19.3 0.00 0.00 0.00 71 1010.1
20260506000523 16 216 3.2 12.9 0.00 0.00 0.00 71 1010.1
20260506000052 16 360 4.8 25.7 0.00 0.00 0.00 71 1010.0
20260505235523 16 360 6.4 25.7 0.00 0.00 0.00 70 1009.9
20260505235027 16 360 3.2 20.9 0.00 0.00 0.00 70 1009.8
20260505234542 16 360 6.4 20.9 0.00 0.00 0.00 69 1009.9
20260505234026 17 200 4.8 19.3 0.00 0.00 0.00 69 1009.7
20260505233523 17 244 6.4 19.3 0.00 0.00 0.00 68 1009.8
20260505233047 17 296 6.4 22.5 0.00 0.00 0.00 68 1009.7
20260505232527 17 259 9.7 37.0 0.00 0.00 0.00 67 1009.7
20260505232023 17 360 11.3 37.0 0.00 0.00 0.00 67 1009.7
20260505231538 17 163 9.7 29.0 0.00 0.00 0.00 67 1009.5
20260505231026 17 193 8.0 27.4 0.00 0.00 0.00 66 1009.5
20260505230523 17 240 8.0 27.4 0.00 0.00 0.00 66 1009.6
20260505230044 18 210 9.7 27.4 0.00 0.00 0.00 66 1009.2
20260505225523 18 360 9.7 27.4 0.00 0.00 0.00 66 1009.4
20260505225025 18 360 12.9 27.4 0.00 0.00 0.00 65 1009.6
20260505224546 18 360 8.0 25.7 0.00 0.00 0.00 65 1009.7
20260505224024 18 360 4.8 14.5 0.00 0.00 0.00 65 1009.7
20260505223525 18 360 6.4 14.5 0.00 0.00 0.00 65 1009.6
20260505223040 18 360 3.2 16.1 0.00 0.00 0.00 65 1009.6
20260505222526 18 360 4.8 16.1 0.00 0.00 0.00 64 1009.6
20260505222023 18 360 4.8 19.3 0.00 0.00 0.00 64 1009.7
20260505221547 18 360 8.0 19.3 0.00 0.00 0.00 64 1009.6
20260505221024 18 360 4.8 24.1 0.00 0.00 0.00 63 1009.4
20260505220523 19 360 8.0 27.4 0.00 0.00 0.00 63 1009.4
20260505220036 19 177 9.7 27.4 0.00 0.00 0.00 62 1009.4
20260505215523 20 170 4.8 17.7 0.00 0.00 0.00 63 1009.3
20260505215025 20 191 6.4 17.7 0.00 0.00 0.00 62 1009.3
20260505214546 20 187 8.0 14.5 0.00 0.00 0.00 62 1009.2
20260505214026 20 166 3.2 16.1 0.00 0.00 0.00 63 1009.2
20260505213523 20 205 6.4 17.7 0.00 0.00 0.00 63 1009.1
20260505213039 20 184 8.0 17.7 0.00 0.00 0.00 63 1009.1
20260505212522 20 180 8.0 16.1 0.00 0.00 0.00 62 1009.1
20260505212023 20 267 6.4 16.1 0.00 0.00 0.00 62 1009.3
20260505211604 20 211 4.8 19.3 0.00 0.00 0.00 62 1009.4
20260505211024 20 196 4.8 24.1 0.00 0.00 0.00 62 1009.3
20260505210523 20 0 4.8 25.7 0.00 0.00 0.00 61 1009.2
20260505210043 20 186 11.3 25.7 0.00 0.00 0.00 60 1009.2
20260505205530 20 198 6.4 19.3 0.00 0.00 0.00 60 1009.1
20260505205027 21 194 4.8 22.5 0.00 0.00 0.00 59 1009.0
20260505204550 21 188 8.0 24.1 0.00 0.00 0.00 59 1009.0
20260505204026 21 229 12.9 24.1 0.00 0.00 0.00 59 1009.1
20260505203525 21 232 6.4 27.4 0.00 0.00 0.00 59 1009.1
20260505203035 21 213 8.0 27.4 0.00 0.00 0.00 59 1009.2
20260505202524 21 196 8.0 22.5 0.00 0.00 0.00 58 1009.2
20260505202028 21 200 8.0 22.5 0.00 0.00 0.00 58 1009.2
20260505201539 21 173 4.8 17.7 0.00 0.00 0.00 59 1009.2
20260505201024 21 269 8.0 20.9 0.00 0.00 0.00 58 1009.2
20260505200524 21 265 8.0 20.9 0.00 0.00 0.00 59 1009.4
20260505200039 21 174 6.4 19.3 0.00 0.00 0.00 59 1009.3
20260505195523 21 202 8.0 24.1 0.00 0.00 0.00 58 1009.3
20260505195023 21 264 8.0 29.0 0.00 0.00 0.00 58 1009.4
20260505194539 21 195 8.0 29.0 0.00 0.00 0.00 59 1009.4
20260505194032 21 188 9.7 27.4 0.00 0.00 0.00 58 1009.7
20260505193523 21 191 4.8 25.7 0.00 0.00 0.00 59 1009.7